#timestamp,LO_Frequency,Hit,StdDev 
1551178815.6,286046999.4,N
1551178835.4,286046998.3,N
1551178855.3,286046998.5,N
1551178875.1,286046998.6,N
1551178895.8,286047001.2,N
1551178915.7,286047001.0,N
1551178935.5,286047000.7,N
1551178955.3,286047000.3,N
1551178975.2,286046998.2,N
1551178995.0,286047000.4,N
1551178995.9,286047000.4,N
1551179015.8,286047000.7,N
1551179035.6,286047000.8,N
1551179055.4,286046998.2,N
1551179075.3,286047000.8,N
1551179095.1,286046998.6,N
1551179115.9,286046999.4,N
1551179135.7,286046998.1,N
1551179155.5,286046998.2,N
1551179175.4,286047000.8,N
1551179195.2,286047000.6,N
1551179215.0,286047001.8,N
1551179215.9,286047001.8,N
1551179235.8,286046999.7,N
1551179255.6,286046999.9,N
1551179275.5,286047000.6,N
1551179295.3,286047000.8,N
1551179315.1,286046998.7,N
1551179335.9,286046996.6,N
1551179355.7,286046999.2,N
1551179375.6,286047000.8,N
1551179395.4,286047001.1,N
1551179415.2,286046999.0,N
1551179435.1,286046996.6,N
1551179436.0,286046996.6,N
1551179455.8,286046997.9,N
1551179475.6,286046994.9,Y
1551179495.5,286046997.8,P
1551179515.3,286046998.0,N
1551179535.2,286046995.9,P
1551179555.9,286046993.9,Y
1551179575.7,286046996.3,P
1551179595.6,286046991.8,P
1551179615.4,286046992.1,P
1551179635.2,286046993.1,N
1551179655.1,286046990.7,Y
1551179656.0,286046990.7,P
1551179675.8,286046997.9,N
1551179695.7,286046998.0,N
1551179715.5,286046994.9,N
1551179735.3,286046995.4,N
1551179755.2,286046993.5,N
1551179775.0,286046993.5,N
1551179775.9,286046993.5,N
1551179795.8,286046993.7,N
1551179815.6,286046993.5,Y
1551179835.4,286046998.5,P
1551179855.3,286046999.0,N
1551179875.1,286047000.9,N
1551179895.9,286046999.4,N
1551179915.7,286046997.1,N
1551179935.5,286046997.5,N
1551179955.4,286046997.0,N
1551179975.2,286047000.0,N
1551179995.0,286047002.1,N
1551179995.9,286047002.1,N
1551180015.8,286047001.0,N
1551180035.6,286046999.0,N
1551180055.5,286046999.4,N
1551180105.3,286046996.3,E
1551180115.2,286046996.0,N
1551180135.1,286046999.5,P
1551180136.0,286046999.5,N
1551180155.8,286046996.1,N
1551180175.7,286046993.3,Y
1551180195.5,286046995.0,P
1551180215.3,286046995.5,P
1551180235.2,286046995.2,P
1551180255.0,286046995.7,Y
1551180255.9,286046995.7,P
1551180275.8,286046998.9,P
1551180295.6,286046998.7,N
1551180315.4,286046996.5,N
1551180335.3,286046997.7,N
1551180355.1,286046997.3,N
1551180375.8,286046997.5,N
1551180395.7,286046996.8,N
1551180415.5,286046999.0,N
1551180435.4,286046997.7,N
1551180455.2,286046996.9,N
1551180475.0,286046997.5,N
1551180475.9,286046997.5,N
1551180495.8,286046997.0,Y
1551180515.6,286047000.9,P
1551180535.4,286047001.1,N
1551180555.3,286047001.2,N
1551180575.1,286047000.5,N
1551180595.9,286046998.3,N
1551180615.7,286046998.1,N
1551180635.5,286047002.4,N
1551180655.4,286047003.3,N
1551180675.2,286047007.3,Y
1551180695.1,286047007.5,P
1551180696.0,286047007.5,N
1551180715.8,286047005.2,N
1551180735.6,286047005.4,N
1551180755.5,286047004.7,N
1551180775.3,286047006.5,N
1551180795.1,286047009.2,Y
1551180815.9,286047004.1,P
1551180835.7,286047002.9,P
1551180855.6,286047002.9,N
1551180875.4,286047005.0,Y
1551180895.2,286047004.4,P
1551180915.1,286047003.8,P
1551180916.0,286047003.8,P
1551180935.8,286047002.9,Y
1551180955.7,286047000.4,P
1551180975.5,286047000.2,N
1551180995.3,286046999.9,N
1551181045.2,286047004.3,E
1551181055.1,286046999.8,N
1551181075.9,286047000.0,P
1551181095.7,286047000.9,P
1551181115.5,286047000.1,N
1551181135.4,286047000.8,N
1551181155.2,286046999.9,N
1551181175.0,286047001.1,N
1551181175.9,286047001.1,N
1551181195.8,286046999.0,N
1551181215.6,286047000.4,N
1551181235.5,286047001.0,N
1551181255.3,286046998.2,N
1551181275.1,286047001.0,N
1551181295.9,286047000.8,N
1551181315.7,286047000.2,N
1551181335.6,286047000.6,N
1551181355.4,286047000.7,N
1551181375.2,286046998.2,N
1551181395.1,286046998.1,N
1551181396.0,286046998.1,N
1551181415.8,286046998.7,N
1551181435.6,286046998.1,N
1551181455.5,286046998.5,N
1551181475.3,286047001.0,N
1551181495.2,286047002.7,N
1551181515.9,286046998.7,N
1551181535.7,286046999.6,N
1551181555.6,286046999.3,N
1551181575.4,286046997.1,N
1551181595.3,286046999.4,N
1551181615.1,286046998.8,N
1551181616.0,286046998.8,N
1551181635.8,286046996.9,N
1551181655.7,286046997.9,N
1551181675.5,286046997.4,N
1551181695.3,286046995.0,Y
1551181715.2,286046999.1,P
1551181735.0,286046997.0,P
1551181735.9,286046997.0,N
1551181755.8,286046996.8,N
1551181775.6,286046996.8,N
1551181795.4,286046997.2,N
1551181815.3,286046996.6,Y
1551181835.1,286046999.8,P
1551181855.9,286047000.0,N
1551181875.7,286047000.3,N
1551181895.5,286047001.4,N
1551181915.4,286047002.6,N
1551181935.2,286047000.6,N
1551181955.0,286046999.7,N
1551181955.9,286046999.7,N
1551181975.8,286047000.9,N
1551181995.6,286047000.6,N
1551182015.5,286047000.3,N
1551182035.3,286046998.2,N
1551182055.1,286047000.6,N
1551182075.9,286047000.7,N
1551182095.7,286047000.3,N
1551182115.5,286047000.4,N
1551182135.4,286046999.9,N
1551182155.2,286047000.9,N
1551182175.0,286047000.8,N
1551182176.0,286047000.8,N
1551182195.8,286047002.5,N
1551182215.6,286047000.2,N
1551182235.5,286047002.7,N
1551182255.3,286047002.4,N
1551182275.1,286047000.0,N
1551182295.9,286047000.4,N
1551182315.7,286047001.1,N
1551182335.6,286046999.4,N
1551182355.4,286047000.2,N
1551182375.2,286047001.0,N
1551182395.1,286047001.1,N
1551182396.0,286047001.1,N
